Harlan, KY

7:35 PM EDT on April 24, 2017 (GMT -0400)
Harlan

Weather History for KI35 - November, 2012

Change the Weather History Date:

Friday, November 30, 2012

  Actual Average (KLOZ) Record (KLOZ)
Temperature  
Mean Temperature 44 °F -  
Max Temperature 59 °F 49 °F 71 °F (1998)
Min Temperature 30 °F 31 °F 2 °F (1976)
Degree Days  
Heating Degree Days 20    
Moisture  
Dew Point 34 °F    
Average Humidity 74    
Maximum Humidity 100    
Minimum Humidity 39    
Precipitation  
Precipitation 0.00 in - - ()
Sea Level Pressure  
Sea Level Pressure 30.29 in    
Wind  
Wind Speed 2 mph ()    
Max Wind Speed 9 mph    
Max Gust Speed -    
Visibility 9.7 miles    
Events      
Averages and records for this station are not official NWS values.
T = Trace of Precipitation, MM = Missing Value Source: Averaged Metar Reports

Daily Weather History Graph

Daily Weather History Graph

Search for Another Location

Airport or City:

Trip Planner

Search our weather history database for the weather conditions in past years. The results will help you decide how hot, cold, wet, or windy it might be!

Date:

Astronomy

Nov. 30, 2012 Rise Set
Actual Time 7:27 AM EST 5:17 PM EST
Civil Twilight 6:58 AM EST 5:45 PM EST
Nautical Twilight 6:26 AM EST 6:17 PM EST
Astronomical Twilight 5:55 AM EST 6:49 PM EST
Moon 7:10 PM EST (11/30) 8:58 AM EST (11/30)
Length of Visible Light 10h 47m
Length of Day
9h 50m
Waning Gibbous, 96% of the Moon is Illuminated
Nov 30
Waning Gibbous
Dec 6
Last Quarter
Dec 13
New
Dec 20
First Quarter
Dec 28
Full

Hourly Weather History & Observations

Time (EST) Temp. Windchill Dew Point Humidity Pressure Visibility Wind Dir Wind Speed Gust Speed Precip Events Conditions
12:15 AM 33.8 °F - 30.2 °F 87% 30.32 in 10.0 mi Calm Calm - N/A   Clear
12:35 AM 32.0 °F 28.7 °F 30.2 °F 93% 30.32 in 10.0 mi NE 3.5 mph - N/A   Clear
12:55 AM 33.8 °F 29.6 °F 30.2 °F 87% 30.32 in 10.0 mi East 4.6 mph - N/A   Clear
1:15 AM 32.0 °F 27.5 °F 30.2 °F 93% 30.31 in 10.0 mi East 4.6 mph - N/A   Clear
1:35 AM 32.0 °F 24.8 °F 30.2 °F 93% 30.31 in 10.0 mi East 8.1 mph - N/A   Clear
1:55 AM 32.0 °F - 30.2 °F 93% 30.31 in 10.0 mi Calm Calm - N/A   Clear
2:15 AM 32.0 °F - 30.2 °F 93% 30.32 in 10.0 mi Calm Calm - N/A   Clear
2:35 AM 32.0 °F - 30.2 °F 93% 30.32 in 10.0 mi Calm Calm - N/A   Clear
2:55 AM 32.0 °F - 30.2 °F 93% 30.32 in 10.0 mi Calm Calm - N/A   Clear
3:15 AM 32.0 °F - 30.2 °F 93% 30.32 in 10.0 mi Calm Calm - N/A   Clear
3:35 AM 32.0 °F - 28.4 °F 87% 30.32 in 10.0 mi Calm Calm - N/A   Clear
3:55 AM 32.0 °F - 28.4 °F 87% 30.31 in 10.0 mi Calm Calm - N/A   Clear
4:15 AM 32.0 °F - 28.4 °F 87% 30.31 in 10.0 mi Calm Calm - N/A   Clear
4:35 AM 32.0 °F - 30.2 °F 93% 30.31 in 10.0 mi Calm Calm - N/A   Clear
4:55 AM 32.0 °F - 28.4 °F 87% 30.31 in 10.0 mi Calm Calm - N/A   Clear
5:15 AM 30.2 °F - 28.4 °F 93% 30.32 in 10.0 mi Calm Calm - N/A   Clear
5:35 AM 30.2 °F - 28.4 °F 93% 30.31 in 10.0 mi Calm Calm - N/A   Clear
5:55 AM 30.2 °F - 28.4 °F 93% 30.31 in 10.0 mi Calm Calm - N/A   Clear
6:15 AM 32.0 °F - 28.4 °F 87% 30.32 in 10.0 mi Calm Calm - N/A   Clear
6:35 AM 30.2 °F 26.7 °F 28.4 °F 93% 30.32 in 10.0 mi SE 3.5 mph - N/A   Clear
6:55 AM 32.0 °F - 30.2 °F 93% 30.33 in 10.0 mi Calm Calm - N/A   Clear
7:15 AM 30.2 °F - 28.4 °F 93% 30.33 in 10.0 mi Calm Calm - N/A   Clear
7:35 AM 30.2 °F - 28.4 °F 93% 30.33 in 7.0 mi Calm Calm - N/A   Clear
7:55 AM 30.2 °F - 30.2 °F 100% 30.33 in 7.0 mi Calm Calm - N/A   Clear
8:15 AM 32.0 °F - 30.2 °F 93% 30.33 in 7.0 mi Calm Calm - N/A   Clear
8:35 AM 32.0 °F - 30.2 °F 93% 30.34 in 7.0 mi Calm Calm - N/A   Clear
8:55 AM 32.0 °F - 32.0 °F 100% 30.34 in 10.0 mi Calm Calm - N/A   Clear
9:15 AM 33.8 °F - 32.0 °F 93% 30.36 in 10.0 mi Calm Calm - N/A   Clear
9:35 AM 35.6 °F - 32.0 °F 87% 30.35 in 10.0 mi Calm Calm - N/A   Clear
9:55 AM 35.6 °F - 32.0 °F 87% 30.35 in 10.0 mi Calm Calm - N/A   Clear
10:15 AM 37.4 °F - 32.0 °F 81% 30.35 in 10.0 mi Calm Calm - N/A   Clear
10:35 AM 41.0 °F - 32.0 °F 70% 30.35 in 10.0 mi Calm Calm - N/A   Clear
10:55 AM 41.0 °F - 33.8 °F 76% 30.35 in 10.0 mi Calm Calm - N/A   Clear
11:15 AM 46.4 °F - 33.8 °F 62% 30.34 in 10.0 mi Calm Calm - N/A   Clear
11:35 AM 51.8 °F - 35.6 °F 54% 30.33 in 10.0 mi WNW 3.5 mph - N/A   Clear
11:55 AM 55.4 °F - 35.6 °F 47% 30.32 in 10.0 mi SW 3.5 mph - N/A   Clear
12:15 PM 55.4 °F - 35.6 °F 47% 30.31 in 10.0 mi WSW 6.9 mph - N/A   Clear
12:35 PM 57.2 °F - 35.6 °F 44% 30.30 in 10.0 mi SW 5.8 mph - N/A   Clear
12:55 PM 57.2 °F - 35.6 °F 44% 30.29 in 10.0 mi SW 4.6 mph - N/A   Clear
1:15 PM 57.2 °F - 35.6 °F 44% 30.28 in 10.0 mi West 6.9 mph - N/A   Clear
1:35 PM 57.2 °F - 35.6 °F 44% 30.27 in 10.0 mi WSW 5.8 mph - N/A   Clear
1:55 PM 59.0 °F - 35.6 °F 42% 30.26 in 10.0 mi SW 4.6 mph - N/A   Clear
2:15 PM 59.0 °F - 35.6 °F 42% 30.26 in 10.0 mi Calm Calm - N/A   Clear
2:35 PM 59.0 °F - 33.8 °F 39% 30.25 in 10.0 mi SSW 5.8 mph - N/A   Clear
2:55 PM 59.0 °F - 33.8 °F 39% 30.24 in 10.0 mi Calm Calm - N/A   Clear
3:15 PM 59.0 °F - 35.6 °F 42% 30.23 in 10.0 mi SSE 5.8 mph - N/A   Clear
3:35 PM 57.2 °F - 35.6 °F 44% 30.23 in 10.0 mi South 3.5 mph - N/A   Clear
3:55 PM 57.2 °F - 35.6 °F 44% 30.23 in 10.0 mi SE 8.1 mph - N/A   Clear
4:15 PM 55.4 °F - 37.4 °F 51% 30.22 in 10.0 mi SE 8.1 mph - N/A   Clear
4:35 PM 53.6 °F - 37.4 °F 54% 30.22 in 10.0 mi SSE 5.8 mph - N/A   Clear
4:55 PM 53.6 °F - 37.4 °F 54% 30.23 in 10.0 mi SE 6.9 mph - N/A   Clear
5:15 PM 53.6 °F - 37.4 °F 54% 30.24 in 10.0 mi Calm Calm - N/A   Clear
5:35 PM 51.8 °F - 37.4 °F 58% 30.24 in 10.0 mi South 3.5 mph - N/A   Clear
5:55 PM 51.8 °F - 37.4 °F 58% 30.25 in 10.0 mi South 4.6 mph - N/A   Mostly Cloudy
6:15 PM 51.8 °F - 37.4 °F 58% 30.25 in 10.0 mi ESE 6.9 mph - N/A   Overcast
6:35 PM 51.8 °F - 37.4 °F 58% 30.25 in 10.0 mi SE 5.8 mph - N/A   Mostly Cloudy
6:55 PM 51.8 °F - 37.4 °F 58% 30.25 in 10.0 mi ESE 5.8 mph - N/A   Scattered Clouds
7:15 PM 50.0 °F - 37.4 °F 62% 30.26 in 10.0 mi East 6.9 mph - N/A   Mostly Cloudy
7:35 PM 50.0 °F - 37.4 °F 62% 30.26 in 10.0 mi NNE 9.2 mph - N/A   Overcast
8:15 PM 46.4 °F 42.4 °F 37.4 °F 71% 30.27 in 10.0 mi NNE 8.1 mph - N/A   Mostly Cloudy
8:35 PM 46.4 °F - 37.4 °F 71% 30.27 in 10.0 mi North - - N/A   Mostly Cloudy
8:55 PM 46.4 °F - 37.4 °F 71% 30.27 in 10.0 mi Calm Calm - N/A   Mostly Cloudy
9:15 PM 44.6 °F - 37.4 °F 76% 30.27 in 10.0 mi Calm Calm - N/A   Scattered Clouds
9:35 PM 42.8 °F - 37.4 °F 81% 30.27 in 10.0 mi Calm Calm - N/A   Clear
9:55 PM 44.6 °F - 37.4 °F 76% 30.28 in 10.0 mi Calm Calm - N/A   Clear
10:15 PM 42.8 °F - 37.4 °F 81% 30.28 in 10.0 mi Calm Calm - N/A   Clear
10:35 PM 42.8 °F - 37.4 °F 81% 30.28 in 10.0 mi Calm Calm - N/A   Clear
10:55 PM 42.8 °F 41.1 °F 37.4 °F 81% 30.28 in 7.0 mi NE 3.5 mph - N/A   Clear
11:15 PM 42.8 °F - 37.4 °F 81% 30.28 in 7.0 mi Calm Calm - N/A   Clear
11:35 PM 41.0 °F - 37.4 °F 87% 30.28 in 7.0 mi Calm Calm - N/A   Clear
11:55 PM 41.0 °F - 37.4 °F 87% 30.28 in 7.0 mi Calm Calm - N/A   Clear